When you browse on this site, cookies collect data to enhance your experience and personalize the content and advertising you see.
Visit our Privacy Policy to learn more. By continuing to use the site, you agree to this use of cookies and data.
  • en Suisse
  • Liste des pays
  • À 7 jours
  • Température de l'eau
  • Carte satellitaire
  • Carte météo
  • Widgets météo
  • user-avatar
    Se connecter

    Météo par heure à Karabalta

    Ce jour, 16 Juin, Dimanche

    Heure Température Précipitation Vent Pression Humidité
    00:00 +17°C° 0 mm 4 m/s 692 mmHg 61%
    01:00 +17°C° 0 mm 4 m/s 691 mmHg 60%
    02:00 +17°C° 0 mm 3 m/s 691 mmHg 59%
    03:00 +17°C° 0 mm 3 m/s 691 mmHg 60%
    04:00 +16°C° 0 mm 3 m/s 691 mmHg 60%
    05:00 +16°C° 0 mm 3 m/s 691 mmHg 62%
    06:00 +18°C° 0 mm 3 m/s 691 mmHg 57%
    07:00 +19°C° 0 mm 2 m/s 692 mmHg 52%
    08:00 +21°C° 0 mm 2 m/s 692 mmHg 48%
    09:00 +23°C° 0 mm 2 m/s 692 mmHg 45%
    10:00 +24°C° 0 mm 2 m/s 692 mmHg 42%
    11:00 +25°C° 0 mm 2 m/s 692 mmHg 39%
    12:00 +26°C° 0.1 mm 2 m/s 692 mmHg 39%
    13:00 +26°C° 0.1 mm 3 m/s 692 mmHg 38%
    14:00 +27°C° 0.1 mm 3 m/s 692 mmHg 38%
    15:00 +26°C° 0.1 mm 3 m/s 692 mmHg 41%
    16:00 +25°C° 0.1 mm 3 m/s 692 mmHg 44%
    17:00 +25°C° 0.1 mm 3 m/s 692 mmHg 47%
    18:00 +24°C° 0.1 mm 3 m/s 692 mmHg 49%
    19:00 +21°C° 0.1 mm 4 m/s 693 mmHg 50%
    20:00 +20°C° 0.1 mm 4 m/s 693 mmHg 52%
    21:00 +19°C° 0 mm 3 m/s 693 mmHg 52%
    22:00 +18°C° 0 mm 3 m/s 692 mmHg 52%
    23:00 +18°C° 0 mm 2 m/s 692 mmHg 52%

    Demain, 17 Juin, Lundi

    Heure Température Précipitation Vent Pression Humidité
    00:00 +17°C° 0 mm 2 m/s 692 mmHg 52%
    01:00 +17°C° 0 mm 2 m/s 691 mmHg 52%
    02:00 +16°C° 0 mm 2 m/s 691 mmHg 52%
    03:00 +16°C° 0 mm 2 m/s 691 mmHg 53%
    04:00 +16°C° 0 mm 2 m/s 691 mmHg 54%
    05:00 +16°C° 0 mm 2 m/s 691 mmHg 54%
    06:00 +18°C° 0 mm 2 m/s 691 mmHg 51%
    07:00 +20°C° 0 mm 2 m/s 692 mmHg 48%
    08:00 +23°C° 0 mm 2 m/s 692 mmHg 45%
    09:00 +24°C° 0 mm 2 m/s 692 mmHg 42%
    10:00 +25°C° 0 mm 2 m/s 692 mmHg 40%
    11:00 +26°C° 0 mm 2 m/s 692 mmHg 38%
    12:00 +27°C° 0 mm 2 m/s 692 mmHg 37%
    13:00 +27°C° 0 mm 2 m/s 692 mmHg 37%
    14:00 +28°C° 0 mm 2 m/s 692 mmHg 36%
    15:00 +28°C° 0.1 mm 2 m/s 692 mmHg 38%
    16:00 +28°C° 0.1 mm 2 m/s 692 mmHg 39%
    17:00 +27°C° 0.1 mm 3 m/s 692 mmHg 41%
    18:00 +25°C° 0 mm 2 m/s 691 mmHg 44%
    19:00 +23°C° 0 mm 1 m/s 691 mmHg 48%
    20:00 +21°C° 0 mm 1 m/s 691 mmHg 51%
    21:00 +21°C° 0 mm 1 m/s 691 mmHg 51%
    22:00 +19°C° 0 mm 2 m/s 691 mmHg 51%
    23:00 +19°C° 0 mm 2 m/s 691 mmHg 51%

    Après-demain, 18 Juin, Mardi

    Heure Température Précipitation Vent Pression Humidité
    00:00 +18°C° 0 mm 2 m/s 691 mmHg 50%
    01:00 +18°C° 0 mm 2 m/s 690 mmHg 50%
    02:00 +18°C° 0 mm 2 m/s 690 mmHg 50%
    03:00 +17°C° 0 mm 2 m/s 690 mmHg 50%
    04:00 +17°C° 0 mm 2 m/s 690 mmHg 51%
    05:00 +17°C° 0 mm 2 m/s 690 mmHg 52%
    06:00 +19°C° 0 mm 2 m/s 690 mmHg 48%
    07:00 +23°C° 0 mm 1 m/s 691 mmHg 45%
    08:00 +25°C° 0 mm 1 m/s 691 mmHg 41%
    09:00 +26°C° 0 mm 1 m/s 691 mmHg 38%
    10:00 +27°C° 0 mm 1 m/s 691 mmHg 36%
    11:00 +28°C° 0 mm 2 m/s 691 mmHg 33%
    12:00 +29°C° 0.1 mm 2 m/s 691 mmHg 33%
    13:00 +29°C° 0.1 mm 2 m/s 691 mmHg 32%
    14:00 +30°C° 0.1 mm 3 m/s 691 mmHg 32%
    15:00 +29°C° 0.2 mm 3 m/s 690 mmHg 35%
    16:00 +28°C° 0.2 mm 3 m/s 690 mmHg 38%
    17:00 +28°C° 0.2 mm 3 m/s 690 mmHg 41%
    18:00 +26°C° 0.1 mm 3 m/s 690 mmHg 43%
    19:00 +24°C° 0.1 mm 3 m/s 690 mmHg 45%
    20:00 +22°C° 0.1 mm 3 m/s 691 mmHg 46%
    21:00 +21°C° 0 mm 3 m/s 691 mmHg 47%
    22:00 +21°C° 0 mm 3 m/s 691 mmHg 47%
    23:00 +20°C° 0 mm 3 m/s 691 mmHg 47%

    19 Juin, Mercredi

    Heure Température Précipitation Vent Pression Humidité
    00:00 +19°C° 0 mm 3 m/s 690 mmHg 48%
    01:00 +19°C° 0 mm 2 m/s 690 mmHg 48%
    02:00 +19°C° 0 mm 2 m/s 690 mmHg 48%
    03:00 +19°C° 0 mm 2 m/s 690 mmHg 50%
    04:00 +18°C° 0 mm 2 m/s 690 mmHg 51%
    05:00 +18°C° 0 mm 2 m/s 690 mmHg 53%
    06:00 +20°C° 0.1 mm 2 m/s 690 mmHg 50%
    07:00 +23°C° 0.1 mm 1 m/s 690 mmHg 47%
    08:00 +25°C° 0.1 mm 1 m/s 691 mmHg 45%
    09:00 +26°C° 0.3 mm 1 m/s 691 mmHg 43%
    10:00 +27°C° 0.3 mm 1 m/s 691 mmHg 41%
    11:00 +28°C° 0.3 mm 1 m/s 691 mmHg 39%
    12:00 +27°C° 0.5 mm 3 m/s 690 mmHg 44%
    13:00 +25°C° 0.5 mm 4 m/s 690 mmHg 50%
    14:00 +23°C° 0.5 mm 6 m/s 689 mmHg 55%
    15:00 +23°C° 0.5 mm 6 m/s 690 mmHg 55%
    16:00 +23°C° 0.5 mm 6 m/s 690 mmHg 54%
    17:00 +23°C° 0.5 mm 5 m/s 690 mmHg 54%
    18:00 +22°C° 0.2 mm 5 m/s 691 mmHg 55%
    19:00 +21°C° 0.2 mm 5 m/s 691 mmHg 56%
    20:00 +20°C° 0.2 mm 4 m/s 691 mmHg 57%
    21:00 +19°C° 0 mm 4 m/s 691 mmHg 55%
    22:00 +19°C° 0 mm 4 m/s 691 mmHg 53%
    23:00 +19°C° 0 mm 3 m/s 692 mmHg 51%

    20 Juin, Jeudi

    Heure Température Précipitation Vent Pression Humidité
    00:00 +18°C° 0 mm 3 m/s 691 mmHg 51%
    01:00 +18°C° 0 mm 3 m/s 691 mmHg 51%
    02:00 +18°C° 0 mm 2 m/s 691 mmHg 51%
    03:00 +18°C° 0 mm 2 m/s 691 mmHg 52%
    04:00 +18°C° 0 mm 2 m/s 691 mmHg 52%
    05:00 +18°C° 0 mm 2 m/s 691 mmHg 52%
    06:00 +20°C° 0 mm 2 m/s 691 mmHg 49%
    07:00 +23°C° 0 mm 1 m/s 691 mmHg 46%
    08:00 +25°C° 0 mm 1 m/s 691 mmHg 43%
    09:00 +26°C° 0.1 mm 1 m/s 691 mmHg 40%
    10:00 +28°C° 0.1 mm 1 m/s 691 mmHg 38%
    11:00 +29°C° 0.1 mm 1 m/s 691 mmHg 35%
    12:00 +30°C° 0.1 mm 1 m/s 691 mmHg 34%
    13:00 +30°C° 0.1 mm 1 m/s 691 mmHg 32%
    14:00 +31°C° 0.1 mm 1 m/s 691 mmHg 31%
    15:00 +31°C° 0.2 mm 1 m/s 691 mmHg 33%
    16:00 +30°C° 0.2 mm 1 m/s 691 mmHg 35%
    17:00 +30°C° 0.2 mm 2 m/s 691 mmHg 37%
    18:00 +28°C° 0.1 mm 2 m/s 691 mmHg 42%
    19:00 +26°C° 0.1 mm 2 m/s 691 mmHg 46%
    20:00 +24°C° 0.1 mm 3 m/s 690 mmHg 50%
    21:00 +22°C° 0 mm 3 m/s 690 mmHg 51%
    22:00 +21°C° 0 mm 3 m/s 690 mmHg 52%
    23:00 +20°C° 0 mm 3 m/s 690 mmHg 52%

    21 Juin, Vendredi

    Heure Température Précipitation Vent Pression Humidité
    00:00 +20°C° 0 mm 3 m/s 690 mmHg 51%
    01:00 +20°C° 0 mm 3 m/s 690 mmHg 50%
    02:00 +19°C° 0 mm 3 m/s 689 mmHg 49%
    03:00 +19°C° 0 mm 3 m/s 690 mmHg 49%
    04:00 +19°C° 0 mm 3 m/s 690 mmHg 49%
    05:00 +19°C° 0 mm 3 m/s 690 mmHg 50%
    06:00 +21°C° 0 mm 2 m/s 690 mmHg 46%
    07:00 +24°C° 0 mm 2 m/s 691 mmHg 43%
    08:00 +27°C° 0 mm 2 m/s 691 mmHg 39%
    09:00 +28°C° 0 mm 2 m/s 691 mmHg 38%
    10:00 +29°C° 0 mm 2 m/s 691 mmHg 36%
    11:00 +30°C° 0 mm 2 m/s 691 mmHg 35%
    12:00 +31°C° 0.1 mm 2 m/s 691 mmHg 34%
    13:00 +31°C° 0.1 mm 2 m/s 691 mmHg 33%
    14:00 +32°C° 0.1 mm 2 m/s 690 mmHg 31%
    15:00 +32°C° 0.2 mm 2 m/s 690 mmHg 33%
    16:00 +32°C° 0.2 mm 2 m/s 690 mmHg 34%
    17:00 +31°C° 0.2 mm 2 m/s 690 mmHg 36%
    18:00 +29°C° 0.2 mm 2 m/s 690 mmHg 40%
    19:00 +27°C° 0.2 mm 2 m/s 690 mmHg 45%
    20:00 +24°C° 0.2 mm 2 m/s 690 mmHg 49%
    21:00 +23°C° 0.3 mm 2 m/s 690 mmHg 52%
    22:00 +21°C° 0.3 mm 2 m/s 690 mmHg 54%
    23:00 +20°C° 0.3 mm 2 m/s 690 mmHg 57%
    Voir plus